| time (UTC) | temp F | wind direction | speed knots | gust knots | rain 1hr in | rain 24hr in | rain mn in | humidity % | barometer mb |
| 20260505041557 | 69 | 56 | 0.0 | 1.7 | 0.00 | 0.00 | 0.00 | 91 | 1017.3 |
| 20260505040058 | 69 | 0 | 0.0 | 0.9 | 0.00 | 0.00 | 0.00 | 91 | 1017.5 |
| 20260505034553 | 69 | 80 | 0.0 | 1.7 | 0.00 | 0.00 | 0.00 | 91 | 1017.6 |
| 20260505033050 | 69 | 0 | 0.0 | 2.6 | 0.00 | 0.00 | 0.00 | 90 | 1017.7 |
| 20260505031606 | 69 | 53 | 0.0 | 0.9 | 0.00 | 0.00 | 0.00 | 91 | 1017.8 |
| 20260505030049 | 69 | 0 | 0.0 | 2.6 | 0.00 | 0.00 | 0.00 | 91 | 1017.9 |
| 20260505024557 | 69 | 0 | 0.0 | 1.7 | 0.00 | 0.00 | 0.00 | 90 | 1017.8 |
| 20260505023105 | 69 | 0 | 0.9 | 2.6 | 0.00 | 0.00 | 0.00 | 89 | 1017.8 |
| 20260505021553 | 69 | 0 | 0.9 | 3.5 | 0.00 | 0.00 | 0.00 | 88 | 1017.7 |
| 20260505020048 | 69 | 0 | 0.0 | 1.7 | 0.00 | 0.00 | 0.00 | 88 | 1017.4 |
| 20260505014558 | 69 | 71 | 0.0 | 2.6 | 0.00 | 0.00 | 0.00 | 89 | 1017.3 |
| 20260505013106 | 69 | 0 | 0.0 | 0.0 | 0.00 | 0.00 | 0.00 | 88 | 1017.2 |
| 20260505011551 | 69 | 0 | 0.0 | 2.6 | 0.00 | 0.00 | 0.00 | 88 | 1017.1 |
| 20260505010049 | 70 | 0 | 0.0 | 1.7 | 0.00 | 0.00 | 0.00 | 87 | 1016.8 |
| 20260505004556 | 70 | 54 | 0.0 | 1.7 | 0.00 | 0.00 | 0.00 | 86 | 1016.7 |
| 20260505003050 | 71 | 95 | 0.0 | 1.7 | 0.00 | 0.00 | 0.00 | 86 | 1016.6 |
| 20260505001554 | 71 | 0 | 0.0 | 1.7 | 0.00 | 0.00 | 0.00 | 85 | 1016.6 |
| 20260505000112 | 72 | 113 | 0.0 | 2.6 | 0.00 | 0.00 | 0.00 | 84 | 1016.6 |
| 20260504234551 | 72 | 0 | 0.0 | 2.6 | 0.00 | 0.00 | 0.00 | 84 | 1016.8 |
| 20260504233056 | 72 | 76 | 1.7 | 5.2 | 0.00 | 0.00 | 0.00 | 84 | 1016.6 |
| 20260504231549 | 72 | 151 | 1.7 | 4.3 | 0.00 | 0.00 | 0.00 | 86 | 1016.6 |
| 20260504230106 | 72 | 173 | 1.7 | 6.1 | 0.00 | 0.00 | 0.00 | 86 | 1016.4 |
| 20260504224557 | 73 | 159 | 1.7 | 8.7 | 0.00 | 0.00 | 0.00 | 85 | 1016.2 |
| 20260504223104 | 73 | 200 | 1.7 | 6.1 | 0.00 | 0.00 | 0.00 | 85 | 1016.1 |
| 20260504221603 | 73 | 150 | 3.5 | 7.8 | 0.00 | 0.00 | 0.00 | 84 | 1015.9 |
| 20260504220059 | 73 | 173 | 2.6 | 7.8 | 0.00 | 0.00 | 0.00 | 83 | 1015.7 |
| 20260504214557 | 74 | 187 | 3.5 | 7.8 | 0.00 | 0.00 | 0.00 | 82 | 1015.5 |
| 20260504213054 | 74 | 118 | 4.3 | 8.7 | 0.00 | 0.00 | 0.00 | 82 | 1015.3 |
| 20260504211553 | 74 | 234 | 3.5 | 7.8 | 0.00 | 0.00 | 0.00 | 82 | 1015.5 |
| 20260504210056 | 75 | 171 | 2.6 | 8.7 | 0.00 | 0.00 | 0.00 | 82 | 1015.4 |
| 20260504204601 | 75 | 89 | 4.3 | 8.7 | 0.00 | 0.00 | 0.00 | 82 | 1015.2 |
| 20260504203102 | 75 | 188 | 2.6 | 10.4 | 0.00 | 0.00 | 0.00 | 81 | 1015.2 |
| 20260504201554 | 76 | 190 | 3.5 | 8.7 | 0.00 | 0.00 | 0.00 | 81 | 1015.2 |
| 20260504200058 | 75 | 192 | 6.1 | 11.3 | 0.00 | 0.00 | 0.00 | 83 | 1015.5 |
| 20260504194556 | 73 | 85 | 2.6 | 10.4 | 0.00 | 0.00 | 0.00 | 86 | 1015.5 |
| 20260504193058 | 74 | 258 | 3.5 | 10.4 | 0.00 | 0.00 | 0.00 | 85 | 1015.6 |
| 20260504191606 | 77 | 161 | 6.1 | 13.9 | 0.00 | 0.00 | 0.00 | 78 | 1015.7 |
| 20260504184555 | 77 | 150 | 6.1 | 13.0 | 0.00 | 0.00 | 0.00 | 76 | 1015.8 |
| 20260504183104 | 77 | 96 | 4.3 | 10.4 | 0.00 | 0.00 | 0.00 | 75 | 1016.0 |
| 20260504181601 | 78 | 178 | 1.7 | 10.4 | 0.00 | 0.00 | 0.00 | 74 | 1016.0 |
| 20260504180114 | 77 | 259 | 3.5 | 13.9 | 0.00 | 0.00 | 0.00 | 75 | 1016.1 |
| 20260504174550 | 78 | 178 | 5.2 | 11.3 | 0.00 | 0.00 | 0.00 | 72 | 1016.2 |
| 20260504173054 | 78 | 123 | 2.6 | 10.4 | 0.00 | 0.00 | 0.00 | 72 | 1016.3 |
| 20260504171558 | 78 | 88 | 2.6 | 11.3 | 0.00 | 0.00 | 0.00 | 72 | 1016.4 |